weather.gov     
National Weather Service

Terminal Aerodrome Forecast
NWS Homepage
This page is being discontinued on March 12, 2014.
The same data is available at this site. Please update your bookmarks.
Thank you, and we apologize for the inconvenience.
Please send an email to SR-SRH.Webmaster@noaa.gov with any concerns.


Current Version
Previous Version:    01  02  03  04  05  06  07  08  09  10  11  12  13  14  15  16  17  18  19  20  21  22  23  
[Printable]
203
FTUS42 TJSJ 270500
TAFJBQ
TAF
TJBQ 270520Z 2706/2806 12004KT P6SM FEW040
     FM271400 09013KT P6SM SCT025 SCT040
     FM271800 10010KT P6SM VCTS SCT020 BKN040CB
     FM272200 11010KT P6SM VCSH SCT020 BKN050
      AMD NOT SKED TIL 271100=


U.S. Dept. of Commerce
NOAA National Weather Service
1325 East West Highway
Silver Spring, MD 20910
E-mail: w-nws.webmaster@noaa.gov
Page last modified: May 16, 2007
NATIONAL WEATHER SERVICE: for Safety, for Work, for Fun - FOR LIFE